Location: Eastchurch
(51.4000°N, 0.8667°E)
Time: 00:05:42
(UTC+00:00)

Cosmos 2360 - Pass Details

Date: 19 January 2026
Orbit: 847 x 855 km, 70.7° (Epoch: 9 February)

Event Time Altitude Azimuth Distance (km) Brightness Sun altitude
Rises 17:48:57 0° 328° (NNW) 3,435 7.6 -12.9°
Reaches altitude 10° 17:51:25 10° 327° (NNW) 2,494 6.9 -13.3°
Maximum altitude 17:57:09 78° 243° (WSW) 875 4.4 -14.1°
Drops below altitude 10° 18:02:50 10° 157° (SSE) 2,472 6.5 -15.0°
Sets 18:05:16 0° 157° (SSE) 3,403 7.2 -15.4°
